Flag for Germany Weather past 2 weeks in Aalen, Baden-Württemberg, Germany

Now
49 °F

Passing clouds.


Feels Like: 49 °F
Forecast: 48 / 65 °F
Wind: 2 mph from North

Location: Stoetten

Current Time: Aug 22, 2014 at 6:49:33 AM

Latest Report: Aug 22, 2014 at 6:00 AM


Visibility: 25 mi

Pressure: 30.02 "Hg

Humidity: 72%

Dew point: 41 °F

Location of AalenLocation

Historic Weather in Aalen — Graph

°F

Aalen temperature yesterday

Maximum temperature yesterday: 61 °F (at 3:00 PM)
Minimum temperature yesterday: 47 °F (at 6:00 AM)
Average temperature yesterday: 54 °F

Past Weeks' High & Low Weather Summary

 TemperatureHumidityPressure
High78 °F (Aug 10, 4:00 PM)100% (Aug 16, 9:00 AM)30.19 "Hg (Aug 16, 9:00 AM)
Low47 °F (Aug 20, 5:00 AM)46% (Aug 21, 2:00 PM)29.66 "Hg (Aug 13, 3:00 PM)
Average58 °F78%29.95 "Hg
* Reported Aug 7 6:00 AM — Aug 22 6:00 AM, Aalen, Weather by CustomWeather, © 2014

Note: Actual official high and low records may vary slightly from our data, if they occured in-between our weather recording intervals... More about our weather records

Advertising

Aalen weather history for previous 24 hours

 ConditionsComfort  
Time TempWeatherWind HumidityBarometerVisibility
6:00 AM
Aug 22
49 °FPassing clouds.2 mph72%30.02 "Hg25 mi
5:00 AM51 °FOvercast.2 mph70%30.02 "Hg19 mi
4:00 AM50 °FPassing clouds.2 mph75%30.03 "Hg18 mi
3:00 AM50 °FPassing clouds.2 mph72%30.04 "Hg19 mi
2:00 AM51 °FPassing clouds.2 mph73%30.05 "Hg19 mi
1:00 AM52 °FPassing clouds.2 mph74%30.05 "Hg17 mi
12:00 AM52 °FPassing clouds.2 mph70%30.05 "Hg19 mi
11:00 PM
Aug 21
51 °FClear.2 mph72%30.06 "Hg18 mi
10:00 PM52 °FPassing clouds.2 mph73%30.05 "Hg18 mi
9:00 PM53 °FPassing clouds.2 mph71%30.04 "Hg43 mi
8:00 PM56 °FPassing clouds.3 mph64%30.01 "Hg43 mi
7:00 PM59 °FPassing clouds.3 mph54%30.00 "Hg43 mi
6:00 PM60 °FScattered clouds.3 mph53%29.99 "Hg43 mi
5:00 PM61 °FScattered clouds.5 mph50%29.99 "Hg43 mi
4:00 PM61 °FScattered clouds.5 mph47%30.00 "Hg43 mi
3:00 PM61 °FScattered clouds.5 mph48%30.02 "Hg43 mi
2:00 PM59 °FPassing clouds.6 mph46%30.03 "Hg43 mi
1:00 PM58 °FPassing clouds.6 mph55%30.05 "Hg43 mi
12:00 PM57 °FPassing clouds.5 mph62%30.06 "Hg43 mi
11:00 AM55 °FPassing clouds.6 mph69%30.06 "Hg40 mi
10:00 AM54 °FPassing clouds.6 mph78%30.07 "Hg37 mi
9:00 AM52 °FSunny.6 mph83%30.08 "Hg40 mi
8:00 AM49 °FPassing clouds.3 mph87%30.08 "Hg40 mi
7:00 AM47 °FPassing clouds.3 mph93%30.09 "Hg40 mi
6:00 AM47 °FPassing clouds.5 mph90%30.08 "Hg37 mi
Weather by CustomWeather, © 2014

See weather overviewHow to use our weather pages